sat.trackr.live / text

‹ back to catalog

STARLINK-30338

NORAD 57718 · 2023-129W

PAYLOAD ACTIVE UNKNOWN

§ Identity

Operator
Country
US
Launch date
2023-08-27
Launch site
AFETR
Launch vehicle
Mass (kg)
RCS (m²)

Purposes: comms

External: N2YO · Heavens-Above · Gunter

§ Orbital elements

Epoch: 2026-05-25T00:34:31.833984Z

Period
94.27 min
Inclination
43.0058°
Eccentricity
0.0000852
Mean motion
15.27571685 rev/d
Perigee alt
482.5 km
Apogee alt
483.7 km
Semi-major
6,861.2 km
B*
-1.1210e-5
RAAN
47.0787°
Arg perigee
266.6033°
Mean anomaly
93.4721°
Rev number
15,235

§ Raw data

STARLINK-303381 57718U 23129W   26145.02397956 -.00000570  00000+0 -11210-4 0  99962 57718  43.0058  47.0787 0000852 266.6033  93.4721 15.27571685152353

JSON: /api/v1/satellites/57718 · /tle

For live sub-satellite position, see the globe view (requires WebGL).

§ Visibility from observer

Set your observer location to see the next 7 days of passes ≥ 10°. The values pass through the URL so the page stays shareable.

No JS? Fill the form by hand. The geolocation button needs JavaScript.